Lapse_Rate
6.7 6.7 6.9 6.5 6.2 5.8 6.0 6.0 5.4 4.4 3.6 3.5 3.3 3.1 3.0 3.3 2.9 2.9 2.9 3.3 4.1 3.9 3.8 4.0 4.3 4.6 4.7 4.8 5.0 4.9 4.9 4.9 4.8 4.9 4.8 4.9 4.9 5.0 5.0 5.0 5.4 5.6 4.7 4.4 4.5 4.9 4.8 5.7 6.0 5.6 6.5 6.1 6.0 5.9
6.3 6.7 7.3 7.3 6.9 6.4 5.9 6.1 6.3 6.2 6.0 5.0 4.6 3.8 3.5 3.3 3.2 3.1 2.7 2.8 3.3 4.3 4.2 4.2 4.2 4.6 4.6 4.5 4.7 4.9 4.8 4.8 4.9 4.9 4.8 4.8 5.0 4.8 5.0 5.0 5.2 5.2 5.6 5.7 5.3 5.5 5.7 5.7 5.9 5.9 5.8 5.7 5.6 5.6
5.9 6.1 6.6 7.0 7.1 6.8 6.7 6.6 6.4 6.3 6.1 6.1 6.1 5.4 5.0 4.7 3.8 3.4 3.0 3.0 3.0 3.7 4.0 3.9 4.0 4.2 4.4 4.4 4.7 4.7 4.6 4.7 4.9 5.1 5.1 5.1 5.1 5.3 5.2 4.9 5.3 5.3 5.5 5.3 5.3 5.7 5.7 5.6 5.8 5.5 5.5 5.5 5.5 5.3
5.7 5.9 5.8 5.9 6.5 6.9 7.1 7.0 6.7 6.6 6.5 6.5 6.6 6.6 6.6 6.1 5.8 5.2 4.0 3.9 3.6 3.7 4.0 4.1 4.2 3.9 4.3 4.5 4.5 4.6 5.0 5.0 4.8 5.1 5.0 5.1 5.0 4.9 5.3 5.4 5.3 5.4 5.2 5.4 5.4 5.4 5.6 5.5 5.8 5.3 5.3 5.2 5.3 5.2
5.5 5.5 5.7 5.9 5.8 6.0 6.7 7.0 6.9 7.1 7.0 6.9 6.8 6.6 6.7 7.2 7.0 6.4 6.1 5.7 5.3 4.5 5.1 4.8 4.5 4.5 4.7 4.6 4.8 4.7 4.9 5.0 4.8 4.8 4.6 4.5 4.5 4.5 4.4 4.6 4.8 5.4 6.0 5.8 5.9 6.1 5.9 5.6 5.6 5.4 5.4 5.4 5.4 5.3
5.2 5.2 5.5 5.8 5.9 5.9 5.9 6.6 6.8 7.0 6.8 6.8 6.8 6.8 7.7 7.7 7.6 7.6 6.9 6.5 6.5 5.5 5.4 6.0 5.3 5.1 4.9 4.7 4.9 5.0 5.0 4.8 4.3 3.8 4.8 4.7 4.5 4.9 5.1 4.8 5.1 5.6 5.9 6.0 5.6 5.5 5.5 5.6 5.6 5.8 5.5 4.8 4.9 5.2
5.5 5.4 5.5 5.8 6.1 6.3 6.2 6.2 6.3 7.0 7.0 7.0 6.8 7.4 7.8 7.7 7.9 7.7 7.2 7.1 7.0 6.9 6.4 6.9 6.8 5.8 5.5 5.3 5.0 5.1 4.9 5.0 5.0 4.7 4.6 4.4 4.4 4.5 4.8 5.3 5.4 5.8 5.9 5.8 5.6 5.5 5.6 5.6 5.8 5.7 5.5 5.2 5.2 5.1
5.9 5.7 5.5 5.7 5.8 6.5 6.7 6.7 6.1 6.6 7.0 7.1 7.7 7.9 7.8 7.7 7.6 7.4 7.1 7.3 7.7 7.6 7.3 7.4 7.2 7.0 6.7 6.2 6.3 6.3 5.7 5.6 5.4 5.0 4.9 5.4 5.4 5.0 4.6 5.6 6.0 5.9 5.4 5.6 5.7 5.7 5.4 5.4 5.4 5.1 5.1 5.1 5.1 5.5
6.2 5.6 5.5 5.6 5.8 6.4 7.0 7.2 7.0 7.2 7.4 7.6 7.8 7.7 7.5 7.3 6.9 7.1 7.2 7.6 7.6 7.4 7.1 7.2 7.4 7.3 7.2 7.3 7.5 6.8 5.8 5.5 5.5 5.5 5.6 5.6 5.5 5.3 4.8 5.8 5.9 5.9 5.9 5.9 5.5 5.1 4.7 4.8 4.8 4.8 5.3 5.7 5.7 5.7
6.1 5.8 5.6 6.1 6.8 6.6 7.0 7.5 7.7 7.3 7.3 7.5 7.4 7.3 6.8 6.8 7.6 7.3 7.5 7.6 7.4 7.2 7.2 7.2 7.3 7.5 7.7 7.5 6.6 6.8 6.7 6.7 6.2 5.8 5.8 6.0 5.8 6.0 5.8 6.0 6.2 5.7 5.5 5.5 5.6 5.1 4.9 4.9 5.2 5.5 5.6 5.6 5.5 5.4
6.0 5.6 5.5 5.7 6.2 6.5 7.1 7.2 7.2 6.9 7.0 7.1 6.8 7.2 7.3 7.2 7.6 7.4 7.5 7.4 7.4 7.4 7.3 7.0 7.0 7.4 7.1 7.0 6.9 6.9 7.0 7.0 6.6 6.4 6.1 6.0 6.2 6.5 6.4 6.3 6.1 6.0 5.8 5.4 5.1 5.2 5.3 5.5 5.7 5.7 5.5 5.6 5.7 5.6
5.8 5.7 5.7 5.8 6.0 6.3 6.2 6.2 6.3 6.7 7.0 7.2 7.3 7.4 7.4 7.4 7.6 7.6 7.4 7.4 7.3 7.3 7.3 7.7 8.1 7.9 7.7 7.5 7.1 7.1 7.3 7.2 7.2 7.0 6.8 6.4 7.3 6.9 6.6 5.9 5.8 5.4 5.3 5.6 5.7 5.7 5.7 5.7 5.7 5.8 5.8 5.9 6.1 6.1
5.6 6.0 6.0 5.9 6.0 6.6 6.8 6.7 6.8 7.0 6.9 7.1 7.3 7.5 7.7 7.7 7.4 7.2 7.1 7.0 6.9 7.3 7.7 8.0 8.1 7.9 7.5 7.2 7.3 7.3 7.2 6.7 6.9 6.4 6.3 6.5 6.6 6.5 6.1 6.0 5.7 5.7 5.9 6.0 6.0 5.8 5.9 6.0 6.0 6.2 6.4 6.6 6.5 6.3
5.9 5.8 6.3 6.3 6.4 6.8 7.1 7.1 6.9 6.8 7.1 7.1 7.2 7.2 7.5 7.4 7.3 7.7 7.7 7.7 7.8 7.9 7.9 8.0 7.7 7.0 6.5 6.8 6.9 6.9 6.9 6.7 6.6 6.0 5.8 6.9 6.7 6.5 6.4 6.4 6.2 6.2 6.0 5.9 6.1 6.2 6.4 6.7 6.7 6.6 6.6 6.8 6.8 6.8
6.2 6.1 6.3 6.2 6.1 6.6 6.8 7.1 7.4 7.6 7.4 7.1 7.2 7.0 7.6 7.7 7.6 7.5 7.4 7.3 7.1 7.1 7.4 6.7 6.7 6.7 6.3 6.3 6.3 6.4 6.5 6.1 6.0 6.4 7.1 7.0 7.2 7.0 6.7 6.5 6.2 6.2 6.4 6.5 6.6 6.8 6.8 6.7 6.6 6.6 6.7 6.7 6.7 6.7
6.9 6.6 6.5 6.6 6.6 6.7 6.9 7.1 7.3 7.4 7.8 7.7 7.5 7.2 7.1 7.1 6.7 6.4 6.4 6.4 6.5 6.3 6.3 6.4 6.4 6.2 6.0 6.2 6.3 6.3 6.4 6.5 7.1 7.2 7.0 6.9 6.7 6.7 6.9 6.9 6.9 6.9 7.0 7.0 6.8 6.7 6.6 6.4 6.2 6.3 6.4 6.4 6.4 6.6
6.7 6.9 7.1 7.1 7.1 7.0 7.1 7.1 7.2 7.4 7.6 7.4 7.0 6.8 6.6 6.6 6.4 6.3 6.1 6.0 6.0 5.8 6.0 6.1 6.0 6.1 6.2 6.3 6.1 6.2 6.7 7.1 7.1 7.1 7.1 7.1 7.2 7.2 7.2 7.2 7.2 7.1 6.9 6.8 6.6 6.4 6.2 6.2 6.3 6.3 6.3 6.2 6.1 6.1
6.0 6.5 7.1 7.2 7.3 7.4 7.4 7.3 7.3 7.4 7.4 7.2 6.7 6.8 6.7 6.8 6.6 6.5 6.2 6.1 6.1 5.9 5.8 5.9 6.3 6.2 6.2 6.2 6.4 6.7 6.9 7.0 7.2 7.3 7.4 7.4 7.4 7.3 7.3 7.1 6.9 6.8 6.6 6.3 6.1 6.0 5.9 5.9 5.9 5.9 6.0 6.0 5.9 5.8
5.9 6.1 6.3 6.4 6.5 6.7 6.9 7.0 6.9 6.8 6.5 6.4 6.3 6.2 6.1 6.3 6.2 6.1 6.1 6.2 6.1 6.1 6.2 6.4 6.3 6.5 7.0 7.2 7.2 7.4 7.5 7.5 7.6 7.6 7.5 7.3 7.2 7.0 6.7 6.4 6.2 6.0 5.9 5.8 5.8 5.8 5.8 5.8 5.8 5.8 5.7 5.7 5.7 5.7
6.0 6.1 6.2 6.4 6.5 6.5 6.6 6.3 5.9 5.8 5.5 5.7 6.0 6.0 6.0 6.2 6.1 6.0 6.0 6.2 6.4 6.6 6.9 7.1 7.3 7.6 7.5 7.5 7.6 7.6 7.5 7.4 7.2 7.1 6.9 6.7 6.5 6.3 6.2 6.1 6.0 5.9 5.8 5.8 5.8 5.8 5.7 5.6 5.6 5.6 5.6 5.6 5.5 5.4
5.8 5.9 6.1 6.2 6.3 6.3 6.3 6.1 5.9 5.7 5.8 5.8 5.9 6.0 6.2 6.3 6.4 6.4 6.5 6.7 6.7 6.8 6.8 7.2 7.4 7.5 7.5 7.3 7.1 6.9 6.8 6.6 6.6 6.6 6.5 6.4 6.4 6.3 6.2 6.2 6.1 6.0 6.0 5.9 5.6 5.6 5.7 5.7 5.8 5.7 5.6 5.4 5.0 4.8
5.7 5.8 5.9 6.0 6.0 6.1 6.2 6.2 6.1 5.9 5.7 6.0 6.0 6.0 6.2 6.3 6.4 6.4 6.5 6.4 6.5 6.7 6.9 6.9 6.9 6.8 6.7 6.7 6.5 6.4 6.4 6.3 6.3 6.3 6.4 6.3 6.3 6.3 6.2 6.2 6.2 6.1 6.0 5.9 5.7 5.7 5.7 5.6 5.4 5.2 4.9 4.5 4.4 4.3
5.6 5.6 5.7 5.8 6.0 6.1 6.1 6.0 6.1 6.0 5.9 5.9 5.8 5.9 6.0 6.2 6.2 6.2 6.3 6.6 6.7 6.6 6.6 6.6 6.5 6.4 6.4 6.2 6.1 6.1 6.2 6.2 6.3 6.3 6.3 6.3 6.3 6.2 6.2 6.3 6.2 6.1 5.8 5.5 5.4 5.4 5.3 5.1 4.8 4.5 4.3 4.0 4.0 3.7
5.6 5.6 5.7 5.7 5.8 5.8 5.7 5.7 5.8 5.7 5.9 5.8 5.8 5.7 5.9 5.9 5.9 5.8 6.0 6.4 6.5 6.3 6.4 6.4 6.4 6.3 6.3 6.3 6.3 6.4 6.6 6.5 6.4 6.4 6.4 6.3 6.2 6.2 6.3 6.2 6.0 5.8 5.6 5.4 5.2 5.1 4.8 4.7 4.5 4.1 3.8 3.5 3.5 3.7
5.6 5.7 5.7 5.6 5.6 5.7 5.5 5.3 5.4 5.6 5.7 5.5 5.6 5.4 5.4 5.5 5.5 5.5 6.2 6.7 6.5 6.5 6.4 6.3 6.4 6.5 6.5 6.5 6.5 6.6 6.6 6.5 6.5 6.5 6.4 6.2 6.2 6.3 6.1 6.0 5.7 5.5 5.4 5.1 4.9 4.6 4.3 4.3 3.8 3.4 3.2 3.3 3.7 4.3
5.6 5.6 5.7 5.7 5.6 5.4 5.5 5.5 5.2 5.2 5.4 5.4 5.3 5.3 5.3 5.4 5.5 6.1 6.6 6.7 6.6 6.5 6.4 6.4 6.5 6.4 6.4 6.3 6.3 6.3 6.4 6.4 6.4 6.4 6.3 6.2 6.1 6.1 5.9 5.7 5.6 5.5 5.1 4.7 4.5 4.1 4.0 3.9 3.4 3.1 3.2 3.7 4.3 4.8
5.3 5.5 5.7 5.8 5.6 5.5 5.2 5.3 5.4 5.2 5.1 5.1 5.4 5.4 5.5 5.8 6.2 6.4 6.4 6.2 6.2 6.2 6.2 6.2 6.1 6.1 6.1 6.2 6.1 6.0 6.0 6.1 6.2 6.2 6.2 6.1 5.9 5.7 5.6 5.6 5.5 5.2 4.8 4.6 4.3 4.0 3.9 3.6 3.2 3.3 3.7 4.3 4.7 4.9
5.1 5.6 5.9 5.7 5.7 5.5 5.3 5.3 5.5 5.6 5.6 5.7 5.5 5.6 5.8 6.0 6.2 6.1 6.2 6.1 6.2 6.2 6.1 6.1 6.0 5.9 5.9 6.0 6.0 6.0 6.0 6.0 6.0 6.1 6.1 6.0 5.8 5.6 5.6 5.5 5.2 5.0 4.7 4.4 4.2 4.0 3.7 3.4 3.4 3.7 4.3 4.7 4.9 5.1
5.0 5.5 5.6 5.5 5.3 5.1 5.1 5.1 5.4 5.7 5.9 6.1 6.0 5.8 5.8 5.9 5.9 5.9 5.8 5.9 5.8 5.7 5.7 5.7 5.8 5.8 5.8 5.8 5.9 5.9 6.0 6.1 6.1 6.1 6.0 5.8 5.8 5.6 5.3 5.2 5.1 4.8 4.5 4.2 4.1 3.9 3.6 3.4 3.7 4.2 4.8 5.0 5.2 5.4
5.1 5.3 5.4 5.3 5.1 5.2 5.5 5.4 5.6 5.6 5.6 5.8 6.0 6.0 5.8 5.6 5.6 5.5 5.5 5.4 5.4 5.4 5.4 5.6 5.7 5.7 5.6 5.7 5.7 5.8 5.9 6.1 6.1 6.1 6.0 5.8 5.6 5.6 5.5 5.2 5.0 4.8 4.4 4.2 3.9 3.8 3.6 3.6 3.9 4.6 5.0 5.2 5.5 5.7
4.9 5.0 4.8 4.8 4.7 4.8 5.0 5.0 5.0 5.1 5.1 5.3 5.7 5.8 5.8 5.5 5.5 5.4 5.4 5.4 5.5 5.4 5.5 5.7 5.8 5.7 5.6 5.6 5.7 5.9 6.1 6.2 6.1 6.1 6.0 5.9 5.8 5.6 5.4 5.3 5.0 4.6 4.3 4.1 3.8 3.8 3.7 3.7 4.2 4.8 5.1 5.3 5.6 5.9
4.4 4.5 4.5 4.6 4.6 4.6 4.4 4.5 4.6 4.5 4.6 4.8 5.1 5.4 5.7 5.7 5.6 5.6 5.6 5.6 5.7 5.8 5.8 5.8 5.9 5.8 5.7 5.8 5.9 6.1 6.3 6.2 6.2 6.2 6.0 5.9 5.7 5.5 5.4 5.2 5.0 4.6 4.3 4.1 3.9 3.7 3.7 3.9 4.3 5.0 5.2 5.4 5.6 5.9
5.0 4.8 4.7 4.6 4.4 4.4 4.3 4.2 4.4 4.3 4.4 4.8 5.0 5.0 5.2 5.4 5.7 6.0 5.9 6.1 6.1 6.2 6.3 6.2 6.2 6.2 6.0 6.1 6.2 6.2 6.2 6.2 6.2 6.1 5.9 5.8 5.6 5.5 5.3 5.2 5.0 4.6 4.3 4.0 3.8 3.7 3.7 3.9 4.3 4.9 5.2 5.4 5.7 5.9
Wind_Speed
8 12 16 18 22 25 27 29 30 30 30 31 30 30 28 28 28 17 9 13 9 2 3 3 3 2 1 5 5 3 4 1 1 10 5 5 5 8 5 6 8 12 9 6 6 7 11 10 5 11 5 3 7 6
11 10 13 15 20 24 26 28 29 29 29 29 30 29 29 27 27 24 6 9 9 4 3 3 1 9 3 3 3 6 1 5 5 4 4 3 3 4 6 5 6 6 8 7 9 6 3 3 5 2 6 6 5 7
16 9 8 9 17 20 24 26 28 28 27 29 30 29 28 28 26 24 9 6 7 8 1 3 6 5 1 3 5 3 2 2 2 1 2 1 4 4 6 5 4 5 8 3 3 7 10 4 1 0 3 5 7 6
22 14 8 6 9 17 20 23 24 25 27 27 28 28 26 26 26 23 9 6 8 2 4 2 3 2 3 4 6 5 1 2 3 2 1 3 3 4 2 1 5 4 8 7 4 4 4 4 7 5 6 7 7 6
18 20 19 11 8 12 16 18 19 22 24 25 26 26 25 26 25 14 6 5 7 6 2 3 1 4 4 5 7 7 9 7 2 2 3 4 2 3 2 1 4 5 7 7 7 7 9 6 7 4 8 8 7 8
21 15 13 13 12 8 17 19 21 21 22 23 23 24 23 23 21 6 4 7 9 5 2 2 2 2 4 8 9 11 10 9 5 4 2 3 3 4 4 4 5 10 7 7 4 4 5 8 7 6 9 8 9 10
22 19 17 14 12 10 9 23 23 22 21 22 23 24 23 20 8 4 5 2 21 7 3 2 3 2 1 2 2 1 3 1 1 2 3 3 3 6 2 4 4 10 10 7 11 9 9 4 7 9 11 11 13 11
25 23 21 21 17 20 18 19 24 24 24 24 22 21 18 14 9 2 2 11 13 6 3 3 1 2 3 2 2 1 2 2 3 2 1 2 2 2 3 7 4 4 7 8 6 7 11 12 8 7 7 8 8 6
28 26 27 27 18 17 30 26 27 25 25 24 19 21 6 3 2 1 16 14 5 3 4 3 5 3 4 2 2 1 2 2 1 2 2 2 2 5 6 7 10 10 6 10 9 11 11 12 10 8 8 6 7 4
28 29 33 32 11 30 38 34 30 28 26 26 7 3 2 4 8 5 4 2 1 2 2 2 3 3 3 2 2 3 1 2 2 2 2 3 3 7 4 6 7 12 14 11 9 5 8 8 8 6 6 6 5 5
27 29 32 31 29 35 36 35 32 31 18 3 3 2 0 3 1 3 2 2 2 2 3 4 4 6 1 3 3 1 2 2 3 2 3 3 4 3 8 9 9 10 10 7 6 6 7 7 6 7 6 5 5 4
25 29 35 35 30 30 32 32 26 5 3 7 9 6 2 1 3 3 2 2 1 4 5 4 2 4 2 3 3 3 3 2 4 6 4 3 3 5 10 11 10 9 11 10 9 9 7 7 6 6 6 5 3 3
20 20 25 29 30 25 23 24 25 29 19 3 4 3 2 0 3 5 6 2 2 4 4 4 4 3 2 2 2 3 5 4 2 2 3 3 5 7 9 11 9 7 8 9 8 7 9 6 5 3 4 3 4 2
14 17 17 21 18 20 14 9 6 2 3 3 3 3 4 3 4 4 4 4 2 4 8 6 4 3 2 3 3 4 4 3 4 3 4 4 10 9 8 7 9 8 8 8 7 6 6 4 3 1 2 3 4 3
8 13 13 19 13 9 2 5 2 2 3 3 3 3 3 2 1 1 2 4 2 7 7 4 3 2 1 3 3 3 4 2 4 4 2 5 10 11 10 8 7 7 6 5 5 5 4 4 2 1 2 2 2 3
5 11 8 22 17 10 5 7 2 2 2 2 2 2 0 3 2 2 5 7 4 5 3 3 3 3 3 3 4 5 4 4 3 1 2 8 10 10 9 9 7 6 6 5 4 2 3 4 2 1 3 4 4 3
7 2 13 19 18 9 7 3 2 3 3 3 2 1 3 3 2 2 3 3 3 2 3 3 4 5 2 2 3 2 3 2 4 4 4 5 8 6 6 6 6 7 6 6 5 5 3 1 1 3 4 4 4 4
1 6 16 18 10 4 3 3 3 3 3 2 3 3 1 2 3 2 3 3 2 2 2 3 3 2 4 4 3 2 2 2 2 4 3 5 6 7 7 8 6 6 6 5 4 3 2 2 2 2 4 5 4 3
8 6 10 15 3 3 3 3 3 3 0 1 1 2 2 1 1 2 2 0 2 1 3 2 3 1 2 1 3 3 3 3 4 3 4 6 7 7 7 6 6 5 5 4 3 1 1 1 1 1 1 1 1 2
11 8 17 16 2 3 2 2 2 3 2 2 2 2 2 2 0 1 2 3 2 2 3 2 1 1 2 2 2 3 3 4 4 3 3 2 1 5 6 5 3 4 3 3 3 4 3 2 2 1 1 1 1 4
8 6 11 5 3 4 3 1 2 2 3 3 3 2 1 2 2 2 1 1 3 1 0 1 2 2 2 2 3 3 4 4 3 3 4 4 3 3 3 2 4 3 3 2 4 2 3 1 2 2 2 3 3 4
2 8 3 4 3 3 3 2 3 2 3 3 3 2 2 1 0 1 2 2 2 3 3 5 6 4 3 3 3 4 4 6 5 5 6 8 4 3 4 3 4 2 3 3 3 3 1 2 3 3 3 4 3 1
4 4 3 3 4 4 3 2 3 2 3 2 2 3 1 1 3 2 1 3 3 2 2 4 7 3 4 2 4 5 4 6 4 5 4 4 4 4 3 3 5 6 4 0 2 2 1 4 3 3 3 3 3 3
2 2 2 1 3 2 2 1 1 3 2 2 3 2 3 2 2 1 3 2 2 1 2 7 7 6 3 4 2 2 1 3 4 4 3 5 4 2 3 3 3 3 3 3 2 2 2 3 4 3 3 5 5 4
4 4 4 2 1 4 2 3 2 3 2 3 3 0 2 2 2 2 3 3 4 3 5 5 4 4 4 2 2 2 1 6 5 4 1 5 4 4 5 4 3 2 2 4 3 3 2 3 3 3 3 3 5 4
2 4 5 6 2 3 4 3 3 4 3 2 2 2 2 3 2 4 3 4 3 4 5 7 6 4 2 4 4 2 2 3 5 4 1 2 5 6 5 6 3 2 2 3 4 3 2 3 2 4 4 4 5 5
3 4 3 3 2 1 1 1 2 4 2 4 3 2 3 2 5 4 1 2 3 3 5 5 6 5 5 3 4 3 3 3 5 4 4 4 3 3 5 6 4 3 2 4 4 4 3 1 1 3 4 2 3 4
4 2 5 3 2 1 3 1 3 4 4 3 4 2 7 7 4 3 3 2 3 6 5 3 3 5 5 6 6 7 6 7 8 8 7 5 4 3 4 4 3 6 4 3 4 3 2 1 3 5 5 5 3 2
3 2 4 2 1 1 3 4 4 3 2 4 5 3 3 1 1 1 1 2 5 7 6 6 3 7 7 6 4 4 6 7 7 5 4 3 1 2 1 3 3 2 3 3 3 3 1 3 5 5 5 5 3 3
3 3 3 2 5 5 4 4 3 2 1 2 2 2 2 1 2 0 3 4 5 5 4 6 6 8 8 8 5 3 3 2 3 5 5 4 5 3 4 4 3 3 2 3 3 2 6 5 6 4 4 4 4 4
2 3 3 3 4 3 3 3 2 2 2 2 2 3 3 3 1 1 3 2 5 7 7 6 4 6 8 7 7 6 2 2 3 6 4 4 5 5 4 4 3 3 3 4 4 3 2 1 3 5 5 6 5 5
2 4 4 3 2 1 2 2 2 2 0 2 1 2 2 3 2 2 1 2 6 7 6 8 8 7 5 4 4 3 6 6 4 6 8 5 4 4 4 3 3 3 4 4 4 3 2 3 4 5 6 7 7 6
3 2 2 3 2 2 1 3 2 1 1 1 3 3 4 5 6 3 2 0 2 6 8 6 4 5 7 8 8 6 7 5 6 8 8 8 7 6 4 3 3 4 5 4 3 3 4 5 4 6 6 7 7 6
Wind_Direction
271 246 235 226 220 214 209 207 207 206 204 203 201 199 197 195 194 188 200 184 186 210 265 211 256 255 167 186 160 158 109 213 119 209 201 185 195 190 171 176 173 178 176 200 213 236 251 196 179 205 193 158 138 129
329 275 249 236 222 207 207 207 205 204 203 200 201 198 193 195 193 184 204 189 193 226 241 172 290 242 279 39 140 185 223 154 165 184 193 181 191 163 164 200 184 199 190 176 198 208 223 178 255 267 160 159 169 137
350 315 292 258 215 208 206 205 203 198 199 198 200 199 192 196 196 186 194 159 179 215 337 190 199 196 174 165 125 147 324 146 149 11 154 198 216 163 175 205 158 237 196 219 137 232 231 148 64 59 129 126 124 129
10 355 317 286 230 207 200 195 190 191 198 195 198 195 190 202 197 191 192 187 194 78 226 212 122 168 168 159 172 158 148 14 86 91 206 216 196 190 206 124 196 185 151 185 242 258 92 167 202 138 128 106 100 89
3 7 16 351 237 199 185 183 184 194 195 193 194 191 189 199 195 193 188 190 189 192 219 181 85 181 154 169 189 181 203 215 208 201 200 217 195 160 163 135 217 184 191 187 213 205 185 162 178 150 97 103 101 107
358 352 346 345 357 252 201 195 192 190 186 189 188 187 191 192 185 165 207 216 194 169 126 177 31 195 179 193 197 202 210 214 201 197 213 227 204 169 192 205 234 209 225 170 165 149 139 137 107 120 115 106 91 91
351 342 334 314 284 267 226 199 190 185 183 184 187 183 188 184 171 177 193 260 174 145 143 180 199 174 92 126 153 127 109 167 169 201 211 210 221 176 156 214 254 213 202 161 132 109 111 129 129 116 114 107 103 96
349 339 326 305 273 228 209 188 183 180 180 177 177 175 164 148 95 192 268 223 149 110 137 162 89 128 162 139 144 120 143 174 188 202 233 227 171 174 193 228 285 194 157 123 125 124 148 117 117 119 115 118 112 110
349 342 335 325 284 203 178 173 167 166 161 157 142 103 88 84 148 242 114 86 64 102 134 156 147 148 155 119 131 139 138 196 8 230 221 193 196 229 191 211 220 158 134 123 93 108 131 142 139 132 126 116 115 116
356 1 355 356 48 149 155 154 150 147 140 124 83 78 124 199 189 174 41 71 45 130 117 112 125 150 164 121 122 113 113 180 239 215 149 229 258 260 276 214 146 137 126 122 108 137 139 137 141 136 130 130 136 145
14 17 23 38 85 121 134 135 134 130 102 64 94 93 120 57 223 53 86 108 103 33 179 187 154 135 206 130 129 158 161 171 222 207 208 217 248 191 116 117 110 105 137 155 120 106 103 118 125 124 120 108 100 87
27 43 45 49 69 103 118 125 120 92 117 144 113 103 149 100 57 87 115 118 191 203 164 155 130 98 98 90 102 172 185 204 233 149 210 237 249 141 136 127 115 122 126 126 126 122 115 105 109 108 112 124 111 106
39 35 48 53 60 81 93 102 102 117 114 101 67 88 106 16 117 163 172 191 204 165 180 151 124 115 119 164 147 186 183 221 133 184 231 235 140 129 127 119 114 114 111 104 103 102 103 106 96 107 135 120 122 118
38 44 41 30 39 82 88 113 83 20 75 78 113 121 154 231 221 191 182 160 203 140 145 136 110 126 128 157 141 167 209 155 198 215 239 179 160 142 130 125 124 126 121 117 117 145 156 156 172 186 191 180 170 214
25 29 42 13 4 9 336 256 171 72 82 75 88 193 211 232 52 212 119 100 113 141 125 114 85 74 121 156 193 202 171 215 225 224 219 157 147 140 142 142 137 134 126 122 144 155 183 183 170 283 294 269 237 253
14 4 0 348 345 339 9 131 117 88 70 102 109 93 63 96 132 42 130 124 133 144 85 90 116 166 192 171 183 206 186 216 220 196 106 132 135 141 149 145 151 147 151 156 156 151 112 116 112 332 318 305 292 247
40 4 322 333 338 342 52 78 59 66 90 49 351 15 125 101 89 99 139 127 174 106 161 149 134 191 107 190 203 180 209 172 130 121 121 117 131 124 116 116 122 123 120 110 103 100 107 93 21 346 331 322 317 307
19 291 318 335 348 10 28 44 79 80 59 25 84 279 51 119 101 54 86 124 159 225 143 176 145 145 168 185 185 208 125 94 74 97 96 111 114 116 119 117 107 107 106 112 118 123 61 37 21 301 320 337 3 4
293 292 313 335 346 92 78 0 81 86 128 152 35 13 77 85 64 115 113 232 158 145 87 36 78 130 172 194 147 147 130 133 133 107 94 102 110 121 118 114 118 112 117 134 136 156 258 6 77 75 74 26 339 299
339 323 338 326 11 86 79 349 87 107 161 201 80 54 80 114 148 43 36 24 58 53 34 67 130 180 183 218 177 142 142 133 119 92 95 76 59 121 136 144 146 144 121 83 71 73 71 46 20 27 8 302 295 292
339 320 330 5 31 66 101 73 47 156 143 114 133 93 72 34 51 55 19 14 51 146 262 197 139 45 17 41 70 96 115 122 136 136 161 156 184 144 127 114 120 101 110 104 110 83 79 107 276 289 285 284 279 273
281 341 345 344 62 36 67 1 155 179 80 141 95 100 101 73 260 234 156 73 208 234 168 152 156 143 86 75 56 73 109 99 100 93 90 118 135 131 135 135 114 105 113 141 130 137 238 290 311 306 295 290 278 330
319 10 2 23 58 37 252 12 93 117 125 160 88 107 193 211 217 108 116 206 223 228 157 145 152 102 108 125 107 88 100 113 104 107 111 111 119 129 126 129 132 131 126 54 120 110 29 313 316 317 321 339 83 54
87 70 66 108 108 223 357 336 169 111 88 125 145 183 179 171 150 83 234 220 201 140 119 141 133 121 92 99 93 111 67 113 108 100 121 119 106 59 105 111 100 107 126 136 99 68 23 355 360 19 31 54 67 69
74 292 103 306 277 82 88 356 354 80 159 181 125 230 203 121 131 225 228 227 156 158 156 139 130 148 145 152 135 154 199 141 142 144 311 121 109 84 80 72 68 87 122 92 58 53 348 356 39 60 71 83 92 76
175 255 144 184 242 145 180 137 173 184 135 122 185 145 81 106 123 241 240 185 166 166 174 169 162 149 132 143 153 146 184 138 123 109 11 139 137 140 150 143 129 324 22 121 121 94 33 1 86 102 96 104 107 102
215 249 203 206 193 157 49 78 136 110 127 171 187 111 92 159 235 250 267 209 149 189 161 161 160 154 155 132 103 82 81 90 119 129 115 88 79 107 143 160 165 208 156 114 118 136 139 69 51 162 143 110 132 128
213 223 171 216 134 143 150 116 143 168 186 174 111 159 173 196 229 231 205 228 136 118 107 92 107 129 129 128 127 117 95 99 91 93 84 59 41 71 96 95 107 120 118 122 134 127 123 129 142 140 134 135 128 104
214 212 114 94 64 115 173 173 207 230 195 136 149 191 222 231 239 244 277 126 112 112 112 109 66 98 92 83 72 108 130 136 125 123 126 158 101 291 198 123 115 112 121 111 105 138 110 104 130 129 129 116 119 99
250 156 109 119 143 201 232 168 198 251 342 153 130 88 58 55 326 167 102 112 136 142 139 133 134 135 138 135 129 66 13 135 143 140 157 189 205 185 151 143 143 145 150 128 114 34 42 57 84 73 76 88 95 98
187 94 96 131 198 236 197 150 67 69 40 53 352 109 136 141 50 32 118 127 123 128 127 130 113 139 136 143 145 132 110 319 134 134 133 118 122 130 135 143 148 130 120 125 139 132 107 131 130 128 124 124 125 126
121 159 139 129 138 135 138 91 131 121 323 94 263 82 44 64 173 202 157 124 149 159 160 151 149 172 168 147 129 119 132 140 147 130 125 121 122 133 130 122 111 102 106 105 115 108 103 115 130 143 144 146 149 149
114 101 98 104 103 156 265 99 100 16 22 213 248 183 181 166 206 226 296 23 195 168 163 157 122 125 133 133 131 116 111 117 125 116 110 112 117 112 109 102 100 100 106 108 117 111 101 122 127 133 143 150 151 151